TimePST,TemperatureF,Dew PointF,Humidity,Sea Level PressureIn,VisibilityMPH,Wind Direction,Wind SpeedMPH,Gust SpeedMPH,PrecipitationIn,Events,Conditions,WindDirDegrees,DateUTC
12:53 AM,61.0,33.1,35,30.01,10.0,West,6.9,-,N/A,,Clear,260,2012-11-05 08:53:00
1:53 AM,60.8,33.8,36,30.01,10.0,West,6.9,-,N/A,,Clear,260,2012-11-05 09:53:00
2:53 AM,62.1,33.1,34,30.01,10.0,WSW,6.9,-,N/A,,Clear,250,2012-11-05 10:53:00
3:53 AM,59.0,33.8,39,30.00,10.0,West,6.9,-,N/A,,Clear,270,2012-11-05 11:53:00
4:53 AM,57.0,32.0,39,30.01,10.0,West,6.9,-,N/A,,Clear,260,2012-11-05 12:53:00
5:53 AM,59.0,30.9,35,30.02,10.0,WSW,5.8,-,N/A,,Clear,250,2012-11-05 13:53:00
6:53 AM,60.1,35.1,39,30.04,10.0,West,6.9,-,N/A,,Clear,270,2012-11-05 14:53:00
7:53 AM,66.9,43.0,42,30.06,10.0,West,4.6,-,N/A,,Clear,260,2012-11-05 15:53:00
8:53 AM,77.0,41.0,28,30.06,10.0,Calm,Calm,-,N/A,,Clear,0,2012-11-05 16:53:00
9:53 AM,82.9,39.9,22,30.06,10.0,Calm,Calm,-,N/A,,Clear,0,2012-11-05 17:53:00
10:53 AM,87.1,41.0,20,30.04,10.0,West,3.5,-,N/A,,Clear,280,2012-11-05 18:53:00
11:53 AM,89.1,33.1,14,30.01,10.0,Calm,Calm,-,N/A,,Clear,0,2012-11-05 19:53:00
12:53 PM,93.0,30.0,11,29.99,10.0,NNW,3.5,-,N/A,,Clear,340,2012-11-05 20:53:00
1:53 PM,93.0,28.9,10,29.98,10.0,North,4.6,-,N/A,,Clear,360,2012-11-05 21:53:00
2:53 PM,91.9,33.1,12,29.97,10.0,WNW,4.6,-,N/A,,Clear,300,2012-11-05 22:53:00
3:53 PM,89.1,37.0,16,29.96,10.0,WNW,3.5,-,N/A,,Clear,290,2012-11-05 23:53:00
4:53 PM,82.9,41.0,23,29.96,10.0,West,4.6,-,N/A,,Clear,260,2012-11-06 00:53:00
5:53 PM,75.0,41.0,29,29.97,10.0,Calm,Calm,-,N/A,,Clear,0,2012-11-06 01:53:00
6:53 PM,71.1,44.1,38,29.96,10.0,West,4.6,-,N/A,,Clear,260,2012-11-06 02:53:00
7:53 PM,66.9,45.0,45,29.97,10.0,WSW,5.8,-,N/A,,Clear,240,2012-11-06 03:53:00
8:53 PM,69.1,36.0,30,29.98,10.0,Calm,Calm,-,N/A,,Clear,0,2012-11-06 04:53:00
9:53 PM,64.9,36.0,34,29.98,10.0,West,5.8,-,N/A,,Clear,260,2012-11-06 05:53:00
10:53 PM,63.0,34.0,34,29.98,10.0,West,8.1,-,N/A,,Clear,270,2012-11-06 06:53:00
11:53 PM,63.0,36.0,37,29.98,10.0,West,8.1,-,N/A,,Clear,270,2012-11-06 07:53:00